Find Aerocube 16A

NORAD ID: 59290 Int'l Des: 2024-053 Owner: AERO Country: US operational
LEOCIRCULAR

Aktuelle Ansicht

3D-Globus wird geladen...

Über Aerocube 16A

Beschreibung wird geladen...

Nächste Überflüge

Passes for default location (London). Set your location on the main map for personalized predictions.

Höhenverlauf

Loading altitude history...

Zweizeiliger Elementsatz

1 59290U 24053C 26150.94871502 .00017886 00000-0 40310-3 0 9990
2 59290 49.9903 52.3551 0002385 255.5828 104.4871 15.43274702118443
Epoch: 30. Mai 2026 • Age: 17 hours

Aktueller Status

Höhe 441.3 km
Geschwindigkeit 7.65 km/s
Subsatellitenpunkt 40.71°N, 36.29°W
Startdatum 21. März 2024
Alter 2.1 years
Typ other

Technische Details

Klassifizierung Payload
Masse 10.00 kg
Trockenmasse 10.00 kg
Gesamtmasse 10.00 kg
Länge 2.00 m
Durchmesser 1.00 m
Spannweite 5.00 m
Form Box + pan
Hersteller AERO
Bus-Typ Cubesat 6U
Phasenstatus In Orbit
Besitzer/Staat AERO/US

Most Searched